Lapse_Rate
6.8 6.8 6.8 7.1 6.4 7.0 7.8 8.7 9.6 9.4 8.9 8.2 7.6 8.0 7.9 7.6 7.7 8.0 7.0 6.9 7.2 7.2 7.4 8.1 8.4 8.6 8.6 8.7 8.2 8.1 8.0 8.0 8.0 8.0 8.0 7.9 7.7 7.6 7.6 7.7 7.7 7.6 7.6 7.5 7.4 7.3 7.1 6.9 6.9
6.9 6.8 6.8 6.6 6.5 7.5 8.4 9.4 9.8 9.5 8.6 7.8 7.6 7.9 8.1 8.1 7.8 7.7 7.5 6.7 7.7 7.8 7.7 8.2 8.5 8.4 8.5 8.5 8.1 7.9 7.9 7.8 7.8 7.9 7.8 7.8 7.6 7.5 7.5 7.6 7.7 7.7 7.6 7.5 7.5 7.3 7.2 7.0 6.9
6.8 6.7 6.0 6.4 6.8 7.4 8.2 9.1 9.8 9.2 8.5 8.3 7.8 7.7 8.1 8.1 7.8 7.5 6.9 7.4 7.6 7.9 8.0 8.2 8.5 8.3 8.3 8.3 8.1 7.8 7.7 7.6 7.7 7.6 7.6 7.6 7.6 7.3 7.4 7.5 7.6 7.7 7.6 7.6 7.6 7.3 7.2 7.1 6.9
6.7 6.6 5.8 6.6 7.1 7.8 8.5 8.6 9.0 9.4 9.0 8.4 7.8 7.4 8.0 8.2 7.4 7.4 7.0 7.8 7.7 8.1 8.2 8.3 8.3 8.2 8.1 8.1 8.0 7.6 7.6 7.5 7.5 7.4 7.4 7.5 7.4 7.3 7.2 7.3 7.5 7.6 7.6 7.6 7.6 7.4 7.2 7.1 6.9
6.6 6.2 6.4 6.8 7.2 7.5 8.0 8.5 8.9 9.5 8.9 8.3 8.3 7.8 8.0 8.2 7.1 7.1 7.6 7.8 7.9 8.3 8.2 8.3 8.3 8.1 8.0 8.0 7.9 7.5 7.4 7.3 7.3 7.3 7.3 7.3 7.2 7.1 7.0 7.1 7.3 7.5 7.6 7.6 7.6 7.4 7.3 7.1 6.9
5.8 6.2 6.4 7.1 7.6 7.9 8.4 9.3 9.7 9.5 9.0 8.1 8.4 7.9 7.9 8.0 7.6 6.6 7.6 8.0 8.2 8.2 8.4 8.2 8.2 8.1 7.8 7.8 7.7 7.5 7.2 7.2 7.1 7.1 7.1 7.2 7.2 7.0 6.9 7.0 7.2 7.4 7.6 7.6 7.6 7.4 7.3 7.2 7.0
6.4 6.6 6.7 7.1 7.4 7.8 8.2 8.5 8.9 8.9 8.7 7.9 8.4 8.3 7.5 8.0 7.7 6.5 7.4 7.9 8.2 8.2 8.3 8.3 8.1 8.1 8.0 7.7 7.6 7.4 7.1 7.2 7.2 7.1 7.0 7.1 7.1 7.0 6.9 7.0 7.0 7.3 7.5 7.5 7.5 7.4 7.2 7.1 7.0
6.0 6.5 6.5 7.0 7.3 7.7 8.1 8.4 8.7 8.4 7.9 8.1 8.0 7.8 7.4 8.1 7.7 6.1 6.9 7.8 7.7 8.4 8.3 8.3 8.2 8.1 8.0 8.1 7.8 7.7 7.4 7.3 7.1 7.1 7.0 7.1 7.0 6.9 6.9 6.9 6.9 7.0 7.3 7.5 7.5 7.3 7.1 7.0 6.9
6.3 6.3 6.2 6.9 7.5 7.8 8.3 8.6 9.3 8.5 7.8 7.9 7.8 7.7 7.6 7.6 7.5 6.9 6.5 7.1 7.9 8.2 8.1 8.3 8.4 8.2 8.2 8.1 8.1 7.9 7.8 7.6 7.5 7.3 7.0 7.0 6.7 6.6 6.7 6.9 6.9 6.9 7.1 7.3 7.5 7.4 7.2 6.9 6.9
6.4 6.7 6.4 7.0 7.3 7.7 8.1 8.3 8.5 8.3 8.5 8.3 7.8 7.7 7.6 7.4 7.2 7.0 6.6 6.9 7.5 8.0 8.0 8.2 8.4 8.4 8.4 8.4 8.3 8.3 8.0 7.7 7.4 7.2 7.1 6.8 6.5 6.6 6.7 7.0 7.0 7.0 7.2 7.1 7.3 7.5 7.3 7.1 6.9
6.5 6.3 6.8 6.9 7.1 7.3 7.4 7.4 7.7 7.6 7.6 7.7 7.5 7.7 7.6 7.3 6.8 6.8 6.8 7.1 6.9 7.6 7.8 8.0 8.1 8.3 8.4 8.4 8.3 8.2 8.1 7.9 7.9 7.3 6.9 6.7 6.9 6.7 6.9 7.0 7.1 7.0 7.3 7.1 7.2 7.4 7.5 7.3 6.9
6.8 6.8 7.0 7.1 7.2 6.9 7.1 7.2 7.1 7.1 6.9 6.9 7.0 7.1 7.1 6.9 6.6 6.4 6.5 7.0 7.0 6.9 7.5 7.7 7.6 8.1 8.3 8.4 8.5 8.4 8.2 7.9 8.1 7.8 7.4 7.0 7.3 7.1 7.4 7.2 7.1 7.0 7.2 7.2 7.1 7.2 7.3 7.5 7.1
7.0 7.0 7.1 7.1 7.1 7.0 7.0 6.9 7.0 6.7 6.8 6.7 6.6 6.6 6.7 6.5 6.2 6.2 6.4 6.8 6.8 6.8 7.1 7.5 7.5 7.8 8.2 8.3 8.6 8.3 8.3 8.0 8.0 8.0 7.8 7.5 7.5 7.3 7.6 7.2 7.0 7.0 7.0 7.0 7.0 6.9 7.0 7.2 7.0
6.7 6.5 6.4 6.6 6.9 7.1 7.0 6.7 6.6 6.5 6.8 6.4 6.3 6.2 6.5 6.4 6.2 6.3 6.4 6.6 6.6 6.8 6.8 7.3 7.5 7.7 8.0 8.2 8.4 8.4 8.3 8.0 7.9 7.9 7.7 7.2 7.4 7.6 7.3 7.2 7.0 6.9 6.7 6.8 6.8 6.7 6.8 6.9 7.0
5.5 5.4 5.7 5.8 6.3 6.2 6.7 5.8 5.9 6.6 6.5 6.3 6.4 6.4 6.8 6.7 6.4 6.3 6.5 6.5 6.5 6.6 6.9 6.9 7.7 7.6 7.9 8.1 8.3 8.3 8.3 8.0 7.7 7.9 7.7 7.2 7.1 7.5 7.1 7.5 7.0 6.9 6.6 6.7 6.6 6.5 6.5 6.7 6.7
5.1 5.0 4.7 5.3 5.9 5.9 6.4 4.8 6.5 6.6 6.6 6.7 6.8 6.9 6.9 6.8 6.6 6.4 6.5 6.4 6.4 6.5 6.7 6.7 7.0 7.7 7.7 7.9 7.9 8.2 8.1 7.9 7.7 7.6 7.6 7.2 7.0 7.2 7.3 7.4 7.1 6.9 6.6 6.7 6.5 6.5 6.5 6.7 6.8
5.0 4.6 4.6 4.8 5.3 5.8 6.3 5.3 6.1 6.3 6.5 6.7 6.8 6.8 6.8 6.8 6.8 6.7 6.7 6.5 6.5 6.4 6.5 6.5 6.8 7.5 7.6 7.6 7.8 7.9 7.9 7.9 7.8 7.7 7.7 7.4 7.3 7.4 7.4 7.5 7.1 7.0 6.8 6.9 6.7 6.5 6.6 6.6 6.5
5.4 4.8 4.8 4.4 5.5 6.4 5.9 5.4 5.9 6.4 6.6 6.8 6.8 6.7 6.7 6.6 6.8 6.9 6.8 6.6 6.3 6.5 6.6 6.5 6.3 6.9 7.4 7.3 7.5 7.7 7.7 7.6 7.6 8.2 8.0 7.8 7.6 7.4 7.4 7.4 7.0 7.3 7.2 6.9 6.8 6.6 6.7 6.5 6.3
5.7 5.5 5.2 5.2 6.3 6.8 6.1 5.6 6.3 6.8 6.7 6.8 6.7 6.6 6.8 6.7 6.8 6.9 6.8 6.8 6.4 6.1 6.4 6.6 6.3 6.4 6.9 7.3 7.2 7.4 7.4 7.4 7.7 8.1 8.2 8.3 7.9 7.3 6.8 6.9 7.2 7.5 7.6 7.1 7.1 6.8 6.9 6.6 6.3
5.7 5.3 4.5 5.3 6.6 7.3 6.9 5.9 6.2 6.3 6.2 6.4 6.5 6.6 6.5 6.8 6.8 7.0 6.9 6.6 6.6 6.5 6.2 6.3 6.3 6.4 6.4 7.2 7.2 7.1 7.4 7.5 7.8 8.1 8.2 7.7 7.4 7.4 7.0 6.8 7.6 7.7 7.6 7.2 6.7 6.7 6.9 6.5 6.3
5.3 5.3 4.6 5.4 6.6 6.8 6.9 5.4 5.6 6.0 6.0 6.2 6.3 6.8 6.5 6.8 7.0 6.9 6.9 6.9 6.4 6.6 6.7 6.6 6.2 6.1 6.2 6.4 7.1 6.9 6.9 7.1 7.2 7.1 7.8 7.8 7.6 7.5 7.6 7.5 7.2 7.5 7.6 7.2 7.0 6.9 6.7 6.7 6.5
5.4 5.4 5.4 5.6 6.3 5.8 7.1 5.9 5.8 6.3 6.7 7.0 7.2 7.0 6.8 6.8 6.9 7.1 7.0 6.8 6.8 6.2 6.5 6.5 6.5 6.5 6.0 5.9 6.2 6.7 6.9 7.0 7.2 7.1 7.7 8.0 7.9 7.8 7.5 7.5 7.2 7.3 7.5 7.4 7.1 6.9 6.8 6.8 6.4
5.8 5.8 5.9 5.9 6.0 5.9 6.0 6.1 4.4 6.6 6.7 7.2 7.6 7.7 7.3 6.6 6.9 7.0 7.0 6.8 6.7 6.3 6.0 6.0 6.3 6.3 6.1 6.0 5.7 6.1 6.7 6.9 6.7 7.0 7.3 7.5 7.6 7.6 7.5 7.2 7.1 7.1 7.5 7.6 7.4 6.8 6.8 6.6 6.5
5.5 6.0 5.6 5.7 5.9 6.1 5.2 6.1 5.0 6.7 6.9 7.4 8.2 7.6 7.0 7.1 7.2 6.8 6.7 6.6 6.3 6.0 5.9 6.0 6.1 6.3 6.2 6.0 5.6 5.3 6.1 6.8 6.8 6.5 6.9 7.1 7.2 7.3 7.3 7.4 7.1 7.1 7.0 7.4 7.7 7.0 6.8 6.9 6.6
5.9 5.3 5.7 5.3 5.9 5.8 5.8 6.7 5.4 7.5 7.2 7.4 8.0 7.2 6.2 6.9 6.9 6.8 7.0 6.7 6.0 5.9 5.9 5.9 5.9 5.9 6.1 6.0 5.4 5.4 5.5 6.4 6.4 6.2 6.4 6.7 7.1 7.2 7.2 7.2 7.3 7.2 7.0 7.1 7.3 7.3 7.1 6.9 6.7
6.1 5.8 5.4 6.2 6.2 6.6 6.7 7.2 5.8 7.2 7.3 8.2 7.1 6.1 5.7 6.5 6.6 6.5 6.3 6.3 5.9 6.0 5.9 5.9 6.1 5.9 5.9 5.7 5.4 5.3 5.8 6.4 6.5 6.5 6.8 6.9 7.0 7.1 7.1 7.2 7.1 7.2 7.2 7.0 7.1 7.0 6.9 6.9 6.7
5.8 6.1 6.0 6.3 5.6 5.9 6.6 7.5 7.0 6.5 6.8 6.8 6.5 5.9 6.0 5.7 5.6 5.8 6.3 6.0 6.2 5.9 5.8 5.9 5.9 5.9 4.9 5.1 4.9 4.8 5.4 6.2 6.3 6.2 6.5 6.8 6.9 6.9 7.1 7.2 7.0 6.9 7.0 7.0 6.9 7.1 7.2 7.0 7.0
6.0 6.1 6.2 5.8 6.5 6.2 6.4 6.6 7.3 6.5 6.4 5.5 5.3 4.8 4.2 4.1 4.3 4.6 5.1 5.4 5.7 6.3 6.2 6.0 6.0 5.9 5.8 5.5 5.4 5.8 5.8 5.9 5.9 5.9 6.2 6.5 6.8 6.8 6.9 7.0 7.1 6.9 6.8 7.1 6.9 6.8 7.0 7.1 7.0
4.5 5.5 5.4 5.9 5.8 5.9 6.4 5.7 5.9 5.2 5.1 4.6 4.3 4.3 4.4 4.5 4.4 4.1 4.4 4.9 4.9 5.5 6.2 6.3 6.1 5.9 5.7 5.7 6.0 5.9 5.7 6.2 6.3 6.2 5.9 5.9 6.2 6.3 6.8 6.8 6.9 6.9 7.0 6.8 6.9 6.9 6.9 6.9 7.0
5.1 4.9 4.9 5.4 4.9 4.6 5.4 4.9 5.1 5.3 5.0 4.6 4.5 3.6 4.3 3.8 4.2 4.2 4.6 4.6 4.6 4.8 5.1 5.8 6.0 6.0 6.1 6.2 5.9 5.7 5.9 5.9 6.1 6.3 6.2 6.1 6.2 6.0 6.2 6.8 6.7 6.6 6.6 6.8 6.9 6.9 7.0 7.0 7.2
Wind_Speed
5 9 7 8 6 7 15 20 18 6 6 10 4 5 10 12 11 7 10 10 7 15 14 16 18 21 20 21 24 24 25 25 26 26 25 25 24 23 22 23 22 22 22 22 20 19 18 19 17
11 10 9 6 8 12 12 19 9 10 12 8 5 10 13 14 7 0 8 12 7 14 11 16 16 20 21 21 22 24 25 24 25 26 25 25 25 24 22 23 22 23 21 20 19 20 19 18 18
11 15 7 6 11 14 15 21 13 4 8 4 5 10 10 7 5 4 12 11 6 11 10 19 15 18 21 20 21 24 23 24 25 26 25 25 25 23 22 21 24 22 21 20 20 20 20 17 18
6 7 7 10 20 20 21 20 21 9 4 4 6 7 8 6 0 7 11 8 11 7 10 24 17 17 20 21 20 22 22 23 23 24 26 24 25 24 21 20 23 22 21 20 21 20 19 18 18
9 7 12 17 21 19 19 17 20 12 6 10 10 8 13 9 10 8 9 4 13 9 11 20 24 17 19 21 21 22 22 22 23 24 26 25 24 25 21 20 22 21 21 22 21 20 19 20 18
9 10 14 16 20 21 20 13 16 11 9 10 9 9 14 1 8 9 9 5 14 11 9 15 18 20 18 20 21 21 22 23 23 25 25 25 24 25 23 20 22 20 22 23 21 18 19 19 18
15 13 20 23 23 23 20 18 20 10 6 11 14 12 5 13 12 9 8 5 13 10 8 10 15 17 19 19 20 20 21 22 23 24 26 25 24 24 25 21 21 18 22 23 21 18 19 19 18
13 14 26 22 20 25 20 18 19 10 12 12 11 10 9 10 9 10 7 9 8 10 7 8 11 16 16 16 21 22 22 21 23 23 25 24 24 24 24 22 20 20 21 21 19 19 18 19 17
20 16 19 26 24 24 21 21 15 7 12 13 14 16 14 15 15 10 6 11 10 8 9 7 11 13 16 16 17 21 22 22 20 23 25 26 19 21 23 20 22 22 22 20 18 18 18 17 15
19 17 28 25 23 23 23 22 17 19 17 17 18 18 17 17 15 13 10 9 13 13 12 10 10 14 13 13 15 16 18 19 19 20 22 21 20 18 20 21 22 23 22 20 18 19 20 17 10
24 25 24 27 24 24 26 24 21 22 21 20 21 19 17 16 15 14 16 15 14 16 12 14 10 14 14 12 10 10 13 14 17 22 23 19 20 18 15 18 18 18 22 18 17 17 15 14 13
26 29 26 27 25 22 26 24 26 24 21 23 22 21 21 21 19 18 16 16 14 18 17 16 15 12 14 9 10 10 9 11 10 19 25 16 10 12 14 14 16 16 17 16 17 13 15 15 16
28 28 26 23 24 22 25 25 27 26 23 23 23 24 24 23 23 20 20 18 16 15 20 20 17 14 14 12 11 12 12 11 13 17 23 19 10 11 14 12 16 16 20 18 14 15 13 12 13
23 26 27 26 26 25 25 29 26 24 24 27 25 26 25 24 24 22 21 19 17 16 22 22 21 16 15 14 14 12 12 13 13 15 20 19 16 11 11 10 10 13 18 20 17 13 9 7 11
21 27 26 26 26 27 24 37 30 28 28 31 27 26 27 23 21 22 19 18 17 15 16 24 23 21 15 16 13 11 11 12 12 12 22 21 18 16 10 11 11 12 20 20 15 12 11 6 8
18 21 21 18 24 23 19 44 27 25 26 27 22 19 15 16 19 20 15 16 17 19 16 23 20 22 21 15 12 9 11 10 12 12 19 23 20 22 11 11 11 17 18 17 9 9 7 7 5
12 17 23 26 25 23 25 43 25 24 27 26 19 19 14 16 16 17 15 16 17 18 17 22 22 24 22 18 13 12 9 11 9 10 13 22 20 20 12 12 10 17 9 11 9 8 8 7 5
14 14 18 28 21 27 31 36 28 28 28 21 19 18 16 16 16 14 14 15 18 19 14 16 20 23 22 16 12 12 12 9 7 10 12 19 18 18 12 10 10 14 9 8 8 9 7 7 7
30 30 33 28 22 27 25 29 24 21 22 24 18 20 19 19 20 17 13 14 9 13 14 15 21 21 18 15 15 13 13 13 13 11 16 14 17 18 15 10 11 12 12 10 9 5 9 7 7
30 33 40 28 24 23 24 32 25 23 24 24 23 22 22 23 21 18 16 11 15 14 9 11 20 21 19 15 15 12 13 13 13 12 14 13 15 17 14 13 13 15 11 11 11 12 8 7 10
31 34 33 30 20 24 21 34 27 26 29 26 26 28 24 25 21 19 16 16 6 15 13 9 14 23 20 19 14 12 11 11 12 12 12 14 17 15 17 16 12 15 13 12 10 12 14 11 10
28 34 31 27 19 18 15 22 20 17 21 22 22 21 22 21 23 18 15 17 12 7 3 5 2 4 21 21 17 20 15 12 11 12 13 15 20 20 17 17 14 17 11 14 15 10 10 13 13
27 22 27 28 24 18 18 9 28 10 16 17 15 19 3 8 16 17 5 18 15 9 7 7 7 6 6 18 19 16 15 12 8 8 13 15 14 19 20 18 17 14 13 14 15 17 15 13 13
18 20 22 20 17 14 28 17 33 14 19 20 19 7 12 11 12 15 13 12 10 8 5 2 3 6 7 8 14 18 21 14 12 11 9 10 10 12 16 20 19 15 17 14 16 16 19 16 13
25 25 9 8 12 15 21 15 24 10 13 11 5 17 12 12 12 11 11 10 11 10 7 5 4 7 8 9 7 13 17 18 18 15 13 12 10 10 17 18 18 16 17 16 16 16 17 17 16
19 22 7 6 4 10 21 10 17 11 9 13 17 14 13 13 11 13 11 9 9 8 11 11 11 11 8 10 6 11 16 11 11 13 11 12 12 13 15 16 17 19 19 17 15 13 14 17 14
35 24 22 21 8 4 3 4 3 9 13 16 19 15 14 14 13 12 12 12 12 10 10 9 11 11 13 12 9 5 8 13 12 14 12 11 13 12 16 17 18 18 18 19 18 14 17 17 18
7 10 12 10 7 13 10 16 5 14 15 15 14 17 15 13 13 10 9 9 9 8 7 8 9 11 12 12 11 7 2 4 5 13 14 14 14 15 16 16 18 17 17 19 19 16 16 18 15
5 3 2 2 2 8 3 2 8 13 13 14 12 12 11 10 11 11 11 11 9 6 6 6 7 9 11 12 11 11 11 5 5 5 4 11 14 16 17 19 20 19 19 18 18 18 18 19 18
3 4 1 4 4 5 2 2 4 11 11 11 10 5 5 4 5 6 9 7 7 9 9 7 5 4 5 6 10 9 8 10 7 5 5 5 8 9 15 19 20 21 20 20 19 20 18 20 21
Wind_Direction
221 227 235 254 253 233 264 271 275 357 89 72 34 310 313 312 292 307 111 66 35 104 125 142 137 140 148 148 145 143 141 143 139 138 137 134 133 131 132 131 131 130 133 131 124 117 116 114 107
241 222 243 278 244 264 270 284 6 54 55 36 296 276 283 274 268 8 41 54 40 109 135 138 139 146 147 150 149 145 146 146 143 142 142 140 137 134 139 140 135 136 139 135 127 125 123 118 113
268 278 264 236 241 250 264 287 343 73 136 216 262 287 276 287 304 36 23 6 80 96 151 133 132 142 146 151 151 147 149 149 148 147 146 144 139 137 140 142 140 143 143 137 132 129 126 119 123
219 226 251 260 262 271 293 310 305 293 250 232 215 270 282 220 332 55 35 16 97 100 124 134 135 141 148 150 155 151 152 152 151 149 147 149 144 140 142 142 145 147 146 138 136 133 129 128 135
242 268 245 254 261 268 265 258 277 288 308 284 291 294 310 315 122 81 54 38 105 112 129 143 142 145 150 155 159 158 155 156 154 152 149 152 149 143 144 147 149 150 149 137 135 137 132 134 144
226 234 252 261 261 259 274 283 282 282 256 277 265 261 270 65 155 80 77 28 118 129 142 139 147 150 152 157 161 162 159 160 158 154 151 153 151 145 142 147 150 151 139 135 134 140 134 137 147
249 255 252 258 267 272 277 293 294 318 274 277 294 276 263 303 119 107 91 85 126 131 134 150 159 160 169 162 161 159 160 163 159 156 153 152 149 144 141 145 144 145 134 135 138 140 137 141 148
240 256 264 264 271 273 284 282 272 249 252 268 296 290 280 303 107 131 145 125 115 139 136 174 165 165 167 172 164 163 161 162 158 157 152 145 146 144 141 143 144 138 136 137 141 140 139 145 150
250 254 255 260 267 276 278 277 282 212 247 241 247 265 268 277 291 286 171 146 143 159 160 179 173 171 170 168 170 164 159 159 159 154 146 141 151 150 146 156 143 136 138 138 141 139 140 146 153
243 247 249 260 269 279 280 288 298 295 273 274 273 263 260 256 249 256 254 224 186 173 176 174 196 175 169 170 162 168 169 171 169 166 155 156 152 161 162 140 140 136 136 138 141 142 145 144 159
240 244 254 257 269 283 294 293 293 287 279 282 280 284 279 271 270 248 245 231 200 185 178 181 203 178 177 171 160 162 167 169 177 168 168 173 157 161 141 141 145 143 144 149 145 148 163 164 170
250 254 258 265 255 262 272 281 277 277 287 287 290 291 286 279 271 269 247 243 235 175 179 179 187 189 184 171 166 167 170 176 182 179 177 178 161 162 148 160 163 156 163 158 161 174 191 168 175
251 259 260 267 263 264 269 271 272 271 273 276 278 276 271 266 265 256 251 246 237 197 173 178 183 184 188 186 171 174 179 185 183 178 181 181 171 166 155 165 167 167 171 164 170 176 201 172 168
277 283 282 283 281 287 288 279 278 275 282 276 272 270 265 261 253 251 245 242 234 228 177 173 176 185 189 196 179 180 180 180 180 179 181 186 181 169 162 167 168 172 178 168 174 177 196 167 161
278 272 270 267 271 270 282 272 265 272 268 265 260 258 252 246 249 245 237 230 223 228 186 172 171 174 191 195 190 187 187 178 179 181 183 189 185 174 172 165 169 176 181 166 171 176 189 164 163
261 260 265 257 261 267 272 268 266 268 261 264 260 262 257 251 245 247 228 219 225 217 221 171 168 172 175 197 194 193 196 187 184 181 184 190 189 175 175 167 173 175 180 167 174 179 186 168 157
214 255 249 253 247 260 251 267 269 272 265 261 270 273 245 258 231 241 217 213 212 226 213 172 171 169 176 182 190 194 197 202 190 175 182 186 193 180 180 172 172 171 175 171 177 179 180 163 160
233 226 234 250 249 249 252 259 255 252 254 252 245 251 257 248 250 242 214 213 200 229 206 181 174 167 172 175 186 188 197 200 193 182 187 184 193 190 185 175 169 165 172 176 182 178 167 166 168
240 247 251 247 241 239 243 259 252 254 260 259 253 263 264 249 237 224 241 198 199 210 218 198 178 174 165 175 186 190 188 193 198 191 192 189 191 190 188 184 162 170 181 185 191 165 170 177 170
231 241 252 264 260 260 270 272 272 274 271 272 263 252 248 250 247 228 209 203 197 201 210 214 180 179 177 176 184 191 190 192 194 191 199 196 192 193 186 191 174 175 182 180 195 177 182 178 178
226 232 244 251 261 266 277 277 264 257 259 253 255 258 247 255 246 234 224 197 166 197 189 208 214 181 182 184 181 184 185 188 188 177 183 193 196 190 190 191 177 176 184 186 196 190 187 182 181
229 223 239 245 240 248 228 269 256 261 255 245 244 258 235 229 239 243 226 186 156 139 82 139 192 199 187 184 187 188 191 194 195 183 180 188 191 195 191 193 188 178 180 188 189 201 195 182 185
230 220 225 232 237 247 233 250 271 245 247 251 238 241 232 227 220 204 199 183 171 123 97 39 1 335 251 203 188 193 189 191 167 169 179 183 195 196 195 194 194 180 186 188 190 188 194 196 190
260 259 262 260 250 243 238 223 272 242 250 248 255 115 86 78 66 74 64 70 85 76 72 89 308 294 290 254 214 188 198 186 180 171 175 190 190 199 198 196 198 192 188 188 187 193 190 195 200
236 234 236 237 222 233 234 217 243 252 277 326 129 107 91 77 74 74 81 85 72 61 40 2 298 271 259 268 249 188 182 187 189 182 180 185 191 199 202 198 196 191 192 191 191 191 192 200 202
219 235 220 243 214 233 234 215 232 225 327 241 110 100 103 93 74 65 60 74 75 61 42 15 351 340 240 244 282 190 190 194 200 198 191 192 195 196 198 202 200 196 190 193 195 197 198 201 203
240 240 234 241 256 270 243 228 101 102 68 91 109 116 101 89 77 70 52 54 56 36 42 20 356 347 3 9 12 314 213 196 200 202 206 197 192 194 195 193 199 198 198 195 195 200 203 202 207
262 257 229 219 233 228 207 226 167 135 109 89 75 71 61 58 83 68 64 52 59 60 46 21 11 5 358 359 6 34 45 20 272 228 209 204 196 190 191 193 198 200 198 197 196 201 205 206 209
346 14 271 114 234 231 258 112 302 94 92 87 66 68 65 64 38 31 33 30 41 49 69 50 24 10 8 357 354 356 354 19 348 331 297 235 208 198 193 196 195 198 198 198 199 200 202 204 208
168 158 139 295 76 46 352 60 10 88 97 82 90 47 60 27 29 1 11 20 5 5 6 18 39 28 21 0 345 339 343 335 326 329 356 348 6 239 200 196 196 200 201 200 203 205 202 205 208